When you browse on this site, cookies collect data to enhance your experience and personalize the content and advertising you see.
Visit our Privacy Policy to learn more. By continuing to use the site, you agree to this use of cookies and data.
  • In Slovakia
  • List of Countries
  • For 7 days
  • Water Temperature
  • Weather Map
  • Weather Widgets
  • user-avatar
    Login

    Hourly Weather Sankt Polten

    Today, 27 January, Monday

    Time Temperature Precipitation Wind Pressure Humidity
    00:00 +1°C° 0 mm 0 mps 738 mmHg 85%
    01:00 +1°C° 0 mm 0 mps 738 mmHg 85%
    02:00 +1°C° 0 mm 0 mps 738 mmHg 85%
    03:00 +2°C° 0 mm 1 mps 737 mmHg 86%
    04:00 +2°C° 0 mm 1 mps 737 mmHg 86%
    05:00 +2°C° 0 mm 1 mps 737 mmHg 88%
    06:00 +2°C° 0 mm 1 mps 737 mmHg 90%
    07:00 +2°C° 0 mm 1 mps 737 mmHg 91%
    08:00 +3°C° 0 mm 1 mps 737 mmHg 90%
    09:00 +4°C° 0 mm 1 mps 737 mmHg 89%
    10:00 +6°C° 0 mm 1 mps 737 mmHg 88%
    11:00 +7°C° 0 mm 1 mps 737 mmHg 85%
    12:00 +7°C° 0 mm 1 mps 736 mmHg 82%
    13:00 +8°C° 0 mm 1 mps 736 mmHg 79%
    14:00 +8°C° 0 mm 1 mps 735 mmHg 82%
    15:00 +7°C° 0 mm 1 mps 735 mmHg 86%
    16:00 +5°C° 0 mm 0 mps 734 mmHg 90%
    17:00 +5°C° 0 mm 1 mps 734 mmHg 89%
    18:00 +4°C° 0 mm 1 mps 734 mmHg 89%
    19:00 +3°C° 0 mm 1 mps 733 mmHg 89%
    20:00 +3°C° 0 mm 1 mps 733 mmHg 90%
    21:00 +3°C° 0 mm 1 mps 732 mmHg 90%
    22:00 +3°C° 0 mm 1 mps 732 mmHg 90%
    23:00 +3°C° 0 mm 1 mps 731 mmHg 91%

    Tomorrow, 28 January, Tuesday

    Time Temperature Precipitation Wind Pressure Humidity
    00:00 +3°C° 0 mm 1 mps 730 mmHg 91%
    01:00 +3°C° 0 mm 1 mps 729 mmHg 92%
    02:00 +3°C° 0 mm 1 mps 729 mmHg 92%
    03:00 +3°C° 0 mm 1 mps 728 mmHg 92%
    04:00 +1°C° 0 mm 0 mps 727 mmHg 92%
    05:00 +2°C° 0 mm 1 mps 727 mmHg 92%
    06:00 +2°C° 0 mm 1 mps 726 mmHg 92%
    07:00 +2°C° 0 mm 1 mps 726 mmHg 91%
    08:00 +3°C° 0 mm 1 mps 725 mmHg 89%
    09:00 +4°C° 0 mm 1 mps 725 mmHg 87%
    10:00 +4°C° 0 mm 1 mps 725 mmHg 85%
    11:00 +5°C° 0 mm 1 mps 725 mmHg 83%
    12:00 +6°C° 0 mm 1 mps 724 mmHg 81%
    13:00 +7°C° 0 mm 1 mps 724 mmHg 78%
    14:00 +4°C° 0.2 mm 3 mps 724 mmHg 82%
    15:00 +4°C° 0.2 mm 4 mps 724 mmHg 85%
    16:00 +3°C° 0.2 mm 6 mps 725 mmHg 88%
    17:00 +2°C° 0.1 mm 6 mps 725 mmHg 83%
    18:00 0°C° 0.1 mm 7 mps 726 mmHg 78%
    19:00 0°C° 0.1 mm 7 mps 726 mmHg 73%
    20:00 -1°C° 0 mm 7 mps 727 mmHg 74%
    21:00 -1°C° 0 mm 6 mps 727 mmHg 76%
    22:00 -2°C° 0 mm 6 mps 727 mmHg 77%
    23:00 -1°C° 0 mm 5 mps 727 mmHg 78%

    Day after tomorrow, 29 January, Wednesday

    Time Temperature Precipitation Wind Pressure Humidity
    00:00 -1°C° 0 mm 5 mps 728 mmHg 78%
    01:00 -1°C° 0 mm 5 mps 728 mmHg 79%
    02:00 -1°C° 0 mm 4 mps 728 mmHg 78%
    03:00 -1°C° 0 mm 4 mps 728 mmHg 78%
    04:00 -1°C° 0 mm 3 mps 727 mmHg 77%
    05:00 -1°C° 0.1 mm 3 mps 728 mmHg 79%
    06:00 -1°C° 0.1 mm 3 mps 728 mmHg 81%
    07:00 0°C° 0.1 mm 3 mps 728 mmHg 83%
    08:00 -1°C° 0.6 mm 4 mps 728 mmHg 85%
    09:00 -2°C° 0.6 mm 6 mps 729 mmHg 87%
    10:00 -1°C° 0.6 mm 7 mps 729 mmHg 90%
    11:00 -1°C° 0.1 mm 8 mps 730 mmHg 84%
    12:00 0°C° 0.1 mm 8 mps 730 mmHg 79%
    13:00 0°C° 0.1 mm 9 mps 730 mmHg 73%
    14:00 0°C° 0 mm 8 mps 730 mmHg 74%
    15:00 0°C° 0 mm 7 mps 731 mmHg 75%
    16:00 -1°C° 0 mm 7 mps 731 mmHg 76%
    17:00 -1°C° 0 mm 6 mps 732 mmHg 78%
    18:00 -1°C° 0 mm 5 mps 732 mmHg 81%
    19:00 -1°C° 0 mm 5 mps 733 mmHg 83%
    20:00 -1°C° 0.1 mm 5 mps 733 mmHg 84%
    21:00 -1°C° 0.1 mm 5 mps 734 mmHg 85%
    22:00 -1°C° 0.1 mm 5 mps 734 mmHg 85%
    23:00 -2°C° 0.1 mm 6 mps 735 mmHg 86%

    30 January, Thursday

    Time Temperature Precipitation Wind Pressure Humidity
    00:00 -2°C° 0.1 mm 6 mps 735 mmHg 87%
    01:00 -2°C° 0.1 mm 6 mps 736 mmHg 88%
    02:00 -3°C° 0.1 mm 6 mps 736 mmHg 88%
    03:00 -2°C° 0.1 mm 5 mps 737 mmHg 88%
    04:00 -2°C° 0.1 mm 5 mps 737 mmHg 88%
    05:00 -2°C° 0.1 mm 5 mps 738 mmHg 88%
    06:00 -2°C° 0.1 mm 5 mps 738 mmHg 88%
    07:00 -2°C° 0.1 mm 5 mps 739 mmHg 88%
    08:00 -1°C° 0 mm 5 mps 739 mmHg 86%
    09:00 -1°C° 0 mm 5 mps 739 mmHg 84%
    10:00 0°C° 0 mm 5 mps 739 mmHg 82%
    11:00 +1°C° 0 mm 5 mps 739 mmHg 80%
    12:00 +1°C° 0 mm 5 mps 738 mmHg 77%
    13:00 +2°C° 0 mm 5 mps 738 mmHg 75%
    14:00 +3°C° 0 mm 4 mps 738 mmHg 77%
    15:00 +4°C° 0 mm 2 mps 737 mmHg 78%
    16:00 +4°C° 0 mm 1 mps 737 mmHg 80%
    17:00 +4°C° 0 mm 1 mps 737 mmHg 81%
    18:00 +3°C° 0 mm 1 mps 737 mmHg 82%
    19:00 +1°C° 0 mm 2 mps 737 mmHg 83%
    20:00 +1°C° 0 mm 2 mps 737 mmHg 81%
    21:00 +1°C° 0 mm 2 mps 737 mmHg 79%
    22:00 +1°C° 0 mm 2 mps 736 mmHg 77%
    23:00 +1°C° 0 mm 2 mps 736 mmHg 76%

    31 January, Friday

    Time Temperature Precipitation Wind Pressure Humidity
    00:00 +1°C° 0 mm 2 mps 736 mmHg 74%
    01:00 +1°C° 0 mm 2 mps 736 mmHg 72%
    02:00 +1°C° 0 mm 2 mps 736 mmHg 70%
    03:00 +1°C° 0 mm 2 mps 735 mmHg 68%
    04:00 +1°C° 0 mm 2 mps 735 mmHg 66%
    05:00 +1°C° 0 mm 2 mps 735 mmHg 66%
    06:00 +1°C° 0 mm 2 mps 735 mmHg 66%
    07:00 +2°C° 0 mm 2 mps 735 mmHg 65%
    08:00 +2°C° 0 mm 3 mps 735 mmHg 67%
    09:00 +3°C° 0 mm 3 mps 735 mmHg 69%
    10:00 +4°C° 0 mm 3 mps 735 mmHg 71%
    11:00 +5°C° 0.1 mm 3 mps 735 mmHg 75%
    12:00 +5°C° 0.1 mm 4 mps 734 mmHg 79%
    13:00 +6°C° 0.1 mm 4 mps 734 mmHg 83%
    14:00 +5°C° 0.1 mm 4 mps 734 mmHg 86%
    15:00 +5°C° 0.1 mm 3 mps 734 mmHg 89%
    16:00 +5°C° 0.1 mm 3 mps 734 mmHg 92%
    17:00 +5°C° 0.1 mm 3 mps 734 mmHg 93%
    18:00 +5°C° 0.1 mm 3 mps 734 mmHg 94%
    19:00 +5°C° 0.1 mm 3 mps 735 mmHg 95%
    20:00 +5°C° 0 mm 3 mps 735 mmHg 95%
    21:00 +5°C° 0 mm 3 mps 735 mmHg 95%
    22:00 +6°C° 0 mm 2 mps 736 mmHg 95%
    23:00 +6°C° 0 mm 2 mps 736 mmHg 95%

    1 February, Saturday

    Time Temperature Precipitation Wind Pressure Humidity
    00:00 +6°C° 0 mm 2 mps 736 mmHg 95%
    01:00 +6°C° 0 mm 2 mps 736 mmHg 96%
    02:00 +7°C° 0.1 mm 2 mps 736 mmHg 95%
    03:00 +7°C° 0.1 mm 2 mps 736 mmHg 95%
    04:00 +7°C° 0.1 mm 2 mps 736 mmHg 95%
    05:00 +7°C° 0.1 mm 2 mps 736 mmHg 95%
    06:00 +7°C° 0.1 mm 2 mps 736 mmHg 95%
    07:00 +7°C° 0.1 mm 2 mps 736 mmHg 95%
    08:00 +7°C° 0.1 mm 2 mps 736 mmHg 94%
    09:00 +8°C° 0.1 mm 2 mps 736 mmHg 92%
    10:00 +8°C° 0.1 mm 2 mps 736 mmHg 91%
    11:00 +9°C° 0 mm 2 mps 736 mmHg 89%
    12:00 +10°C° 0 mm 2 mps 736 mmHg 86%
    13:00 +12°C° 0 mm 2 mps 735 mmHg 83%
    14:00 +10°C° 0 mm 2 mps 735 mmHg 85%
    15:00 +10°C° 0 mm 2 mps 735 mmHg 86%
    16:00 +11°C° 0 mm 1 mps 735 mmHg 88%
    17:00 +9°C° 0 mm 2 mps 735 mmHg 88%
    18:00 +9°C° 0 mm 2 mps 735 mmHg 88%
    19:00 +8°C° 0 mm 2 mps 735 mmHg 88%
    20:00 +8°C° 0.4 mm 2 mps 735 mmHg 89%
    21:00 +8°C° 0.4 mm 2 mps 735 mmHg 90%
    22:00 +8°C° 0.4 mm 2 mps 735 mmHg 91%
    23:00 +8°C° 0.3 mm 2 mps 735 mmHg 92%
    Show more